Location: Newark
(31.7692°N, 106.4397°W)
Time: 19:29:49
(UTC+00:00)

Starlink Launch 2 leader - Visible Passes

Search period start: 10 December 2019 00:00
Search period end: 20 December 2019 00:00
Orbit: 279 x 281 km, 53.0° (Epoch: 13 November)

Date Brightness Start Highest point End Pass type
(mag) Time Alt. Az. Time Alt. Az. Time Alt. Az.
10 Dec 4.2 12:53:01 14° N 12:54:37 25° NE 12:56:43 10° ESE visible
11 Dec 2.4 12:55:16 23° NNW 12:56:34 67° NE 12:59:00 10° SE visible
12 Dec 2.9 12:57:37 27° W 12:58:27 38° SW 13:00:45 10° SSE visible
13 Dec 4.3 13:00:02 15° WSW 13:00:16 15° SW 13:01:48 10° SSW visible
19 Dec 6.1 02:08:32 10° WSW 02:08:42 11° WSW 02:08:42 11° WSW visible
